Location: Radomski Observatory
(40.2854°N, 79.5145°W)
Time: 20:35:12
(UTC-04:00)

Amateur Radio Satellites - All Passes

Search period start: 30 July 2016 20:05
Search period end: 31 July 2016 20:05
Location: Radomski Observatory, 40.2854°N, 79.5145°W

Satellite Date Start Highest point End Downlink Frequencies (MHz)
Time Altitude Azimuth
PHONESAT 2.4 30 Jul 20:06:53 20:09:53 50° 198° (SSW) 20:12:53 2401.200-2431.200
AAUSAT CUBESAT 2 30 Jul 20:09:31 20:12:23 18° 67° (ENE) 20:15:16 437.432
STRAND 1 30 Jul 20:17:25 20:22:21 48° 100° (E) 20:27:15 437.568
YUBILEINY 30 Jul 20:17:36 20:25:40 38° 72° (ENE) 20:33:39 435.215
CINEMA 3 30 Jul 20:18:38 20:23:12 78° 76° (ENE) 20:28:01 145.822/145.860
CUTE-I 30 Jul 20:21:01 20:23:44 14° 270° (W) 20:26:27 437.470
FUNcube-1 30 Jul 20:21:27 20:22:21 10° 61° (ENE) 20:23:15 145.935
ZACube-1 30 Jul 20:23:39 20:25:27 12° 62° (ENE) 20:27:15 437.345
UWE-3 30 Jul 20:30:04 20:33:34 22° 67° (ENE) 20:37:07 435.000/436.395/437.385
CANX-2 30 Jul 20:30:08 20:34:24 85° 256° (WSW) 20:38:42 2200.000
DOVE 4 30 Jul 20:37:38 20:40:45 19° 268° (W) 20:44:00 437.250
CUTE 1.7 + AOD 2 30 Jul 20:42:48 20:47:03 70° 259° (W) 20:51:19 437.475
AIST 2 30 Jul 20:53:39 20:57:45 86° 301° (WNW) 21:01:54 435.215
Oscar 11 30 Jul 20:55:31 20:59:03 25° 69° (ENE) 21:02:37 145.826/435.025
CUBEBUG 2 30 Jul 20:59:15 21:03:49 63° 74° (ENE) 21:08:31 437.445
PCSat 30 Jul 21:07:39 21:10:52 16° 318° (NW) 21:14:06 145.827
ISS 30 Jul 21:10:27 21:13:37 49° 327° (NNW) 21:16:48 145.825
M-CUBED/EXP-1 PRIME 30 Jul 21:11:29 21:13:50 15° 58° (ENE) 21:16:17 437.505
SEEDS 30 Jul 21:14:58 21:18:59 42° 262° (W) 21:22:59 437.485
COMPASS 1 30 Jul 21:19:09 21:23:14 54° 260° (W) 21:27:20 437.405
Cosmos 2504 30 Jul 21:27:41 21:34:47 33° 70° (ENE) 21:41:24 435.465 / 435.565
AUBIESAT-1 30 Jul 21:33:16 21:36:19 21° 61° (ENE) 21:39:32 437.475
DELFI C3 30 Jul 21:33:25 21:36:43 26° 70° (ENE) 21:40:01 145.870
PRISM 30 Jul 21:37:45 21:41:38 40° 99° (E) 21:45:31 437.425
O/OREOS (USA 219) 30 Jul 21:39:13 21:42:46 23° 302° (WNW) 21:46:21 437.305
HO-68 30 Jul 21:39:54 21:46:01 30° 265° (W) 21:52:11 435.675
Cosmos 2491 30 Jul 21:40:47 21:49:18 63° 92° (E) 21:57:52 435.465 / 435.565
AAUSAT CUBESAT 2 30 Jul 21:43:48 21:47:37 35° 263° (W) 21:51:26 437.432
PHONESAT 2.4 30 Jul 21:44:32 21:45:56 12° 213° (SSW) 21:47:20 2401.200-2431.200
AO-85 30 Jul 21:52:19 21:56:23 35° 50° (NE) 22:00:09 145.980
FUNcube-1 30 Jul 21:53:19 21:57:52 83° 258° (WSW) 22:02:29 145.935
ZACube-1 30 Jul 21:56:33 22:01:05 72° 258° (WSW) 22:05:41 437.345
STRAND 1 30 Jul 21:57:27 22:01:10 21° 296° (WNW) 22:04:52 437.568
UWE-3 30 Jul 22:05:28 22:09:45 38° 263° (W) 22:14:07 435.000/436.395/437.385
YUBILEINY 30 Jul 22:14:17 22:22:36 48° 272° (W) 22:30:50 435.215
UNISAT 6 30 Jul 22:23:03 22:24:31 11° 89° (E) 22:25:58 437.425
Oscar 11 30 Jul 22:31:19 22:35:04 28° 264° (W) 22:38:50 145.826/435.025
AIST 2 30 Jul 22:35:29 22:36:53 11° 320° (NW) 22:38:16 435.215
HUMSAT D 30 Jul 22:36:06 22:40:22 68° 75° (ENE) 22:44:40 437.325/437.525
CUBEBUG 2 30 Jul 22:38:46 22:40:52 13° 271° (W) 22:42:59 437.445
ESTCUBE 1 30 Jul 22:43:49 22:46:22 15° 64° (ENE) 22:48:55 437.505/2401.250
M-CUBED/EXP-1 PRIME 30 Jul 22:44:11 22:47:53 47° 257° (WSW) 22:51:56 437.505
ISS 30 Jul 22:48:46 22:50:39 14° 346° (NNW) 22:52:32 145.825
ANTELSAT 30 Jul 22:59:16 23:03:15 29° 96° (E) 23:07:08 437.575/2403.000
AUBIESAT-1 30 Jul 23:07:04 23:10:33 31° 259° (W) 23:14:18 437.475
DELFI C3 30 Jul 23:08:23 23:11:31 22° 265° (W) 23:14:41 145.870
PRISM 30 Jul 23:14:03 23:16:38 16° 295° (WNW) 23:19:12 437.425
DX 1 30 Jul 23:14:23 23:16:23 13° 63° (ENE) 23:18:23 434.975-435.025
UKube-1 30 Jul 23:20:42 23:22:19 12° 62° (ENE) 23:23:56 .
Cosmos 2504 30 Jul 23:20:50 23:28:23 47° 272° (W) 23:35:25 435.465 / 435.565
50 SAT 30 Jul 23:24:33 23:27:12 19° 69° (ENE) 23:29:52 437.505
AIST 1 30 Jul 23:26:02 23:27:18 11° 69° (ENE) 23:28:34
AISAT 30 Jul 23:27:15 23:30:51 26° 68° (ENE) 23:34:30 437.250
AO-85 30 Jul 23:33:19 23:36:34 21° 250° (WSW) 23:39:38 145.980
QB50P2 30 Jul 23:35:47 23:36:17 10° 90° (E) 23:36:49 145.880/145.840
POLYITAN 1 30 Jul 23:38:09 23:38:57 10° 90° (E) 23:39:44 437.675
TIGRISAT 30 Jul 23:39:17 23:43:55 75° 101° (ESE) 23:48:23 435.000
Cosmos 2491 30 Jul 23:39:34 23:46:43 28° 292° (WNW) 23:53:57 435.465 / 435.565
SPROUT 30 Jul 23:44:38 23:47:26 17° 66° (ENE) 23:50:15 437.525
UNISAT 6 30 Jul 23:57:06 00:01:42 66° 286° (WNW) 00:06:09 437.425
CUBEBUG 1 31 Jul 00:07:45 00:12:03 77° 75° (ENE) 00:16:23 437.445
NANOSAT C BR1 31 Jul 00:14:54 00:18:33 27° 96° (E) 00:22:08 145.865
BUGSAT 1 31 Jul 00:16:44 00:17:51 11° 90° (E) 00:18:57 437.445
DUCHIFAT 1 31 Jul 00:17:10 00:20:46 26° 96° (E) 00:24:21 145.980
VELOX 1 31 Jul 00:17:20 00:21:43 86° 78° (ENE) 00:26:09 145.980
ESTCUBE 1 31 Jul 00:18:20 00:22:43 53° 260° (W) 00:27:07 437.505/2401.250
TISAT 1 31 Jul 00:26:30 00:27:55 12° 62° (ENE) 00:29:21 437.305
ISS 31 Jul 00:26:48 00:28:10 12° 7° (N) 00:29:32 145.825
ANTELSAT 31 Jul 00:36:00 00:39:51 27° 292° (WNW) 00:43:37 437.575/2403.000
QB50P1 31 Jul 00:39:22 00:43:35 54° 100° (E) 00:47:45 145.935-145.965
JAS-2 31 Jul 00:39:23 00:43:19 20° 94° (E) 00:47:29 435.910
POPSAT HIP 1 31 Jul 00:46:11 00:50:29 64° 101° (E) 00:54:42 437.405
DX 1 31 Jul 00:47:48 00:52:04 59° 259° (W) 00:56:22 434.975-435.025
UKube-1 31 Jul 00:53:32 00:57:48 65° 259° (W) 01:02:06 .
50 SAT 31 Jul 00:57:37 01:00:40 25° 264° (W) 01:03:45 437.505
AIST 1 31 Jul 01:01:01 01:05:20 63° 265° (W) 01:09:39
AISAT 31 Jul 01:03:27 01:07:13 28° 264° (W) 01:11:01 437.250
QB50P2 31 Jul 01:08:15 01:12:31 65° 286° (WNW) 01:16:44 145.880/145.840
POLYITAN 1 31 Jul 01:10:54 01:15:09 64° 286° (WNW) 01:19:23 437.675
TIGRISAT 31 Jul 01:18:24 01:19:55 12° 299° (WNW) 01:21:25 435.000
SPROUT 31 Jul 01:19:00 01:23:02 41° 262° (W) 01:27:08 437.525
Oscar 19 31 Jul 01:25:03 01:26:49 12° 89° (E) 01:28:35 437.125/150
ITUPSAT 1 31 Jul 01:34:10 01:36:37 14° 62° (ENE) 01:39:03 437.325
BUGSAT 1 31 Jul 01:49:22 01:53:36 62° 286° (WNW) 01:57:47 437.445
NANOSAT C BR1 31 Jul 01:50:39 01:54:10 25° 292° (WNW) 01:57:40 145.865
DUCHIFAT 1 31 Jul 01:52:50 01:56:22 25° 291° (WNW) 01:59:52 145.980
TISAT 1 31 Jul 01:58:50 02:03:00 64° 259° (WSW) 02:07:13 437.305
ISS 31 Jul 02:02:33 02:05:26 28° 27° (NNE) 02:08:18 145.825
Cosmos 2499 31 Jul 02:07:42 02:14:11 28° 69° (ENE) 02:20:17 435.465 / 435.565
QB50P1 31 Jul 02:16:44 02:18:53 14° 296° (WNW) 02:21:02 145.935-145.965
GONETS M04 31 Jul 02:22:22 02:30:59 54° 77° (ENE) 02:39:34
SWISSCUBE 31 Jul 02:22:27 02:27:01 46° 71° (ENE) 02:31:36 437.505
JAS-2 31 Jul 02:23:23 02:28:38 53° 288° (WNW) 02:34:22 435.910
POPSAT HIP 1 31 Jul 02:24:06 02:25:42 12° 297° (WNW) 02:27:17 437.405
BEESAT 3 31 Jul 02:24:16 02:27:50 31° 51° (NE) 02:31:23 437.485
PCSat 31 Jul 02:28:27 02:30:37 12° 39° (NE) 02:32:46 145.827
BEESAT 2 31 Jul 02:39:01 02:42:23 25° 49° (NE) 02:45:44 435.950
BEESAT 31 Jul 02:43:07 02:47:52 68° 74° (ENE) 02:52:38 436.000
CUSAT 1 31 Jul 02:59:04 03:00:57 14° 95° (E) 03:02:39 437.405
Oscar 19 31 Jul 03:01:31 03:06:42 79° 285° (WNW) 03:11:53 437.125/150
ITAMSAT 1 31 Jul 03:07:27 03:10:37 16° 92° (E) 03:13:46 435.822/435.867
ITUPSAT 1 31 Jul 03:09:06 03:13:52 67° 258° (WSW) 03:18:40 437.325
Gurwin Techsat 1B 31 Jul 03:16:15 03:21:33 64° 101° (E) 03:26:48 435.225
KKS-1 31 Jul 03:19:37 03:22:42 19° 65° (ENE) 03:25:47 437.445
ISS 31 Jul 03:38:53 03:41:55 36° 223° (SW) 03:44:55 145.825
STARS 31 Jul 03:46:42 03:49:39 18° 65° (ENE) 03:52:37 437.465
DANDE 31 Jul 03:59:15 04:03:50 32° 97° (E) 04:07:26 436.750
Cosmos 2499 31 Jul 04:00:18 04:07:40 52° 270° (W) 04:14:33 435.465 / 435.565
SWISSCUBE 31 Jul 04:01:47 04:05:02 18° 267° (W) 04:08:18 437.505
BEESAT 3 31 Jul 04:02:15 04:05:20 22° 248° (WSW) 04:08:25 437.485
PCSat 31 Jul 04:09:40 04:15:05 66° 59° (ENE) 04:20:27 145.827
BEESAT 2 31 Jul 04:16:42 04:20:11 29° 246° (WSW) 04:23:40 435.950
GONETS M04 31 Jul 04:19:51 04:27:20 33° 276° (W) 04:34:52
CUBESAT XI-V 31 Jul 04:21:20 04:22:28 11° 61° (ENE) 04:23:35 437.345
MOZHAYETS 4 31 Jul 04:23:21 04:27:59 88° 257° (WSW) 04:32:38
BEESAT 31 Jul 04:24:15 04:26:06 12° 270° (W) 04:27:57 436.000
CUSAT 1 31 Jul 04:39:55 04:42:49 22° 282° (WNW) 04:45:18 437.405
AO-7 31 Jul 04:40:16 04:48:21 51° 102° (ESE) 04:56:20 29.400- 29.500
Oscar 19 31 Jul 04:44:36 04:45:09 10° 302° (WNW) 04:45:42 437.125/150
ITAMSAT 1 31 Jul 04:45:22 04:50:28 59° 288° (WNW) 04:55:32 435.822/435.867
KKS-1 31 Jul 04:54:44 04:58:56 41° 261° (W) 05:03:11 437.445
Gurwin Techsat 1B 31 Jul 04:57:36 05:00:57 17° 298° (WNW) 05:04:17 435.225
RS-15 31 Jul 05:11:30 05:19:54 24° 100° (E) 05:28:33 29.354- 29.394
AIST 2 31 Jul 05:15:26 05:19:31 51° 55° (NE) 05:23:35 435.215
STARS 31 Jul 05:21:30 05:25:40 42° 261° (W) 05:29:53 437.465
DANDE 31 Jul 05:43:02 05:46:29 19° 283° (WNW) 05:49:22 436.750
CUBESAT XI-V 31 Jul 05:54:34 05:59:10 80° 259° (WSW) 06:03:47 437.345
PCSat 31 Jul 05:54:35 05:57:53 17° 256° (WSW) 06:01:11 145.827
O/OREOS (USA 219) 31 Jul 06:09:12 06:13:43 61° 67° (ENE) 06:18:13 437.305
HORYU 2 31 Jul 06:09:48 06:14:15 60° 101° (ESE) 06:18:37 437.375
NOAA 18 31 Jul 06:30:11 06:33:34 16° 92° (E) 06:36:55 137.9125
SO-50 31 Jul 06:31:55 06:34:50 16° 109° (ESE) 06:37:44 436.795
AO-7 31 Jul 06:33:25 06:40:51 38° 300° (WNW) 06:48:15 29.400- 29.500
Cubesat XI-IV 31 Jul 06:34:27 06:38:03 18° 92° (E) 06:41:38 437.490
BRITE-PL 31 Jul 06:46:47 06:51:36 45° 99° (E) 06:56:45 437.365/2234.400
AIST 2 31 Jul 06:55:15 06:57:34 15° 251° (WSW) 06:59:54 435.215
CUTE-I 31 Jul 06:55:54 07:00:31 29° 96° (E) 07:05:06 437.470
DOVE 4 31 Jul 06:59:11 07:01:42 13° 89° (E) 07:04:15 437.250
NOAA 15 31 Jul 07:01:13 07:06:13 43° 99° (E) 07:11:14 137.62
LilacSat-2 31 Jul 07:05:54 07:09:24 32° 97° (E) 07:12:52 437.200
RS-15 31 Jul 07:19:12 07:30:42 86° 301° (WNW) 07:42:54 29.354- 29.394
GOMX 1 31 Jul 07:26:21 07:31:26 52° 99° (E) 07:36:44 467.674
STRAND 1 31 Jul 07:32:35 07:37:41 66° 73° (ENE) 07:42:47 437.568
HORYU 2 31 Jul 07:48:04 07:50:17 14° 297° (WNW) 07:52:28 437.375
O/OREOS (USA 219) 31 Jul 07:50:42 07:52:32 12° 262° (W) 07:54:23 437.305
Cosmos 2491 31 Jul 07:52:07 07:59:36 30° 69° (ENE) 08:07:03 435.465 / 435.565
NOAA 18 31 Jul 08:09:10 08:14:40 65° 288° (WNW) 08:20:06 137.9125
SO-50 31 Jul 08:09:59 08:14:49 62° 305° (NW) 08:19:39 436.795
Cubesat XI-IV 31 Jul 08:13:14 08:18:27 55° 289° (WNW) 08:23:38 437.490
CINEMA 3 31 Jul 08:14:34 08:18:24 22° 92° (E) 08:22:10 145.822/145.860
CANX-2 31 Jul 08:16:47 08:19:32 17° 92° (E) 08:22:16 2200.000
BRITE-PL 31 Jul 08:26:01 08:29:49 22° 293° (WNW) 08:33:49 437.365/2234.400
PRISM 31 Jul 08:26:54 08:30:20 27° 69° (ENE) 08:33:48 437.425
CUTE 1.7 + AOD 2 31 Jul 08:28:59 08:32:07 20° 94° (E) 08:35:13 437.475
DOVE 4 31 Jul 08:34:36 08:39:51 74° 284° (WNW) 08:45:08 437.250
CUTE-I 31 Jul 08:35:46 08:40:34 35° 292° (WNW) 08:45:19 437.470
LilacSat-2 31 Jul 08:40:55 08:43:26 17° 293° (WNW) 08:45:57 437.200
NOAA 15 31 Jul 08:41:35 08:45:43 24° 295° (WNW) 08:49:51 137.62
CUBEBUG 2 31 Jul 08:52:24 08:54:55 14° 90° (E) 08:57:23 437.445
SEEDS 31 Jul 08:59:21 09:03:04 31° 97° (E) 09:06:45 437.485
COMPASS 1 31 Jul 09:02:54 09:06:13 23° 95° (E) 09:09:32 437.405
GOMX 1 31 Jul 09:05:23 09:09:09 21° 294° (WNW) 09:13:02 467.674
HO-68 31 Jul 09:06:41 09:13:46 57° 102° (ESE) 09:20:47 435.675
STRAND 1 31 Jul 09:14:36 09:17:17 14° 269° (W) 09:19:59 437.568
YUBILEINY 31 Jul 09:17:46 09:25:52 44° 87° (E) 09:34:01 435.215
UNISAT 6 31 Jul 09:21:59 09:23:20 11° 61° (ENE) 09:24:42 437.425
AAUSAT CUBESAT 2 31 Jul 09:26:19 09:30:05 34° 97° (E) 09:33:49 437.432
RS-15 31 Jul 09:35:02 09:45:09 32° 329° (NNW) 09:55:44 29.354- 29.394
FUNcube-1 31 Jul 09:42:59 09:46:12 20° 93° (E) 09:49:21 145.935
ZACube-1 31 Jul 09:46:16 09:49:48 23° 94° (E) 09:53:15 437.345
Cosmos 2491 31 Jul 09:48:22 09:56:54 59° 269° (W) 10:05:26 435.465 / 435.565
CINEMA 3 31 Jul 09:50:56 09:55:40 42° 289° (WNW) 10:00:18 145.822/145.860
CANX-2 31 Jul 09:51:38 09:55:32 38° 288° (WNW) 09:59:25 2200.000
SO-50 31 Jul 09:54:38 09:56:16 11° 324° (NW) 09:57:54 436.795
UWE-3 31 Jul 09:55:31 09:59:55 45° 98° (E) 10:04:10 435.000/436.395/437.385
ANTELSAT 31 Jul 09:57:25 10:01:14 25° 68° (ENE) 10:05:05 437.575/2403.000
PRISM 31 Jul 10:02:25 10:05:37 22° 265° (W) 10:08:50 437.425
CUTE 1.7 + AOD 2 31 Jul 10:04:15 10:08:00 32° 289° (WNW) 10:11:43 437.475
Cosmos 2504 31 Jul 10:04:36 10:11:57 30° 83° (E) 10:19:13 435.465 / 435.565
Oscar 11 31 Jul 10:18:17 10:22:31 52° 100° (E) 10:26:42 145.826/435.025
HUMSAT D 31 Jul 10:22:45 10:23:45 11° 90° (E) 10:24:45 437.325/437.525
M-CUBED/EXP-1 PRIME 31 Jul 10:25:00 10:27:29 14° 95° (E) 10:29:56 437.505
CUBEBUG 2 31 Jul 10:27:19 10:31:54 54° 287° (WNW) 10:36:19 437.445
SEEDS 31 Jul 10:35:26 10:38:34 21° 292° (WNW) 10:41:42 437.485
TIGRISAT 31 Jul 10:36:47 10:41:22 61° 74° (ENE) 10:46:02 435.000
COMPASS 1 31 Jul 10:38:15 10:41:44 27° 290° (WNW) 10:45:12 437.405
DELFI C3 31 Jul 10:45:28 10:49:15 44° 99° (E) 10:53:01 145.870
AUBIESAT-1 31 Jul 10:46:21 10:49:41 19° 98° (E) 10:52:58 437.475
UNISAT 6 31 Jul 10:54:40 10:59:20 82° 259° (W) 11:04:04 437.425
HO-68 31 Jul 10:55:07 11:01:03 29° 299° (WNW) 11:06:58 435.675
AAUSAT CUBESAT 2 31 Jul 11:02:25 11:05:19 19° 293° (WNW) 11:08:12 437.432
NANOSAT C BR1 31 Jul 11:07:00 11:10:03 19° 67° (ENE) 11:13:07 145.865
DUCHIFAT 1 31 Jul 11:09:01 11:12:01 19° 66° (ENE) 11:15:02 145.980
YUBILEINY 31 Jul 11:14:30 11:22:39 41° 287° (WNW) 11:30:54 435.215
FUNcube-1 31 Jul 11:18:29 11:22:33 36° 289° (WNW) 11:26:31 145.935
ZACube-1 31 Jul 11:22:10 11:26:06 31° 291° (WNW) 11:29:56 437.345
QB50P1 31 Jul 11:31:10 11:35:05 37° 71° (ENE) 11:39:02 145.935-145.965
UWE-3 31 Jul 11:32:58 11:35:58 18° 295° (WNW) 11:38:55 435.000/436.395/437.385
ANTELSAT 31 Jul 11:33:36 11:37:46 32° 264° (W) 11:42:01 437.575/2403.000
POPSAT HIP 1 31 Jul 11:37:57 11:41:59 43° 72° (ENE) 11:46:03 437.405
RS-15 31 Jul 11:54:32 12:03:11 21° 4° (N) 12:11:59 29.354- 29.394
HUMSAT D 31 Jul 11:55:39 11:59:46 58° 285° (WNW) 12:03:47 437.325/437.525
Oscar 11 31 Jul 11:55:55 11:58:11 14° 296° (WNW) 12:00:26 145.826/435.025
Cosmos 2504 31 Jul 11:56:02 12:04:46 60° 282° (WNW) 12:13:27 435.465 / 435.565
M-CUBED/EXP-1 PRIME 31 Jul 11:57:39 12:02:20 62° 291° (WNW) 12:06:55 437.505
CUBEBUG 1 31 Jul 11:58:07 12:00:40 15° 92° (E) 12:03:12 437.445
QB50P2 31 Jul 11:59:51 12:04:06 85° 80° (E) 12:08:25 145.880/145.840
POLYITAN 1 31 Jul 12:02:28 12:06:45 87° 73° (ENE) 12:11:04 437.675
AO-85 31 Jul 12:06:46 12:10:04 17° 108° (ESE) 12:13:17 145.980
VELOX 1 31 Jul 12:09:00 12:11:54 17° 93° (E) 12:14:46 145.980
ESTCUBE 1 31 Jul 12:11:24 12:15:25 32° 97° (E) 12:19:26 437.505/2401.250
TIGRISAT 31 Jul 12:16:13 12:18:26 13° 270° (W) 12:20:41 435.000
AUBIESAT-1 31 Jul 12:19:51 12:24:17 44° 293° (WNW) 12:28:37 437.475
DELFI C3 31 Jul 12:21:42 12:23:43 14° 295° (WNW) 12:25:45 145.870
50 SAT 31 Jul 12:26:26 12:29:23 24° 96° (E) 12:32:20 437.505
JAS-2 31 Jul 12:35:06 12:40:51 60° 73° (ENE) 12:46:06 435.910
DX 1 31 Jul 12:36:53 12:40:26 24° 95° (E) 12:43:58 434.975-435.025
BUGSAT 1 31 Jul 12:38:07 12:42:13 83° 76° (ENE) 12:46:25 437.445
Oscar 19 31 Jul 12:40:47 12:44:07 18° 63° (ENE) 12:47:29 437.125/150
NANOSAT C BR1 31 Jul 12:41:38 12:45:31 35° 262° (W) 12:49:28 145.865
UKube-1 31 Jul 12:41:45 12:45:04 21° 95° (E) 12:48:20 .
DUCHIFAT 1 31 Jul 12:43:32 12:47:27 36° 262° (W) 12:51:23 145.980
AISAT 31 Jul 12:53:13 12:57:37 54° 100° (E) 13:02:00 437.250
Gurwin Techsat 1B 31 Jul 13:00:38 13:02:55 13° 59° (ENE) 13:05:11 435.225
SPROUT 31 Jul 13:05:21 13:09:15 33° 97° (E) 13:13:08 437.525
QB50P1 31 Jul 13:08:04 13:10:59 18° 267° (W) 13:13:56 145.935-145.965
POPSAT HIP 1 31 Jul 13:15:26 13:17:58 15° 268° (W) 13:20:32 437.405
AIST 1 31 Jul 13:29:26 13:33:39 78° 98° (E) 13:37:56
CUBEBUG 1 31 Jul 13:32:56 13:37:11 48° 287° (WNW) 13:41:26 437.445
TISAT 1 31 Jul 13:43:57 13:47:06 20° 94° (E) 13:50:14 437.305
VELOX 1 31 Jul 13:44:19 13:48:32 43° 289° (WNW) 13:52:46 145.980
AO-85 31 Jul 13:44:42 13:50:04 69° 304° (WNW) 13:55:12 145.980
ESTCUBE 1 31 Jul 13:48:29 13:52:04 24° 293° (WNW) 13:55:37 437.505/2401.250
AO-7 31 Jul 13:51:06 13:55:20 15° 47° (NE) 13:59:35 29.400- 29.500
Cosmos 2504 31 Jul 13:57:22 14:00:07 12° 303° (WNW) 14:02:51 435.465 / 435.565
50 SAT 31 Jul 14:00:15 14:02:53 19° 291° (WNW) 14:05:30 437.505
RS-15 31 Jul 14:09:25 14:20:42 39° 38° (NE) 14:31:54 29.354- 29.394
DX 1 31 Jul 14:12:47 14:16:36 30° 291° (WNW) 14:20:24 434.975-435.025
UKube-1 31 Jul 14:17:15 14:21:09 33° 290° (WNW) 14:25:01 .
Oscar 19 31 Jul 14:17:57 14:22:58 57° 259° (W) 14:28:02 437.125/150
JAS-2 31 Jul 14:22:36 14:26:14 17° 267° (W) 14:29:42 435.910
ITAMSAT 1 31 Jul 14:24:33 14:28:45 25° 65° (ENE) 14:32:57 435.822/435.867
SWISSCUBE 31 Jul 14:25:16 14:27:00 12° 90° (E) 14:28:45 437.505
AISAT 31 Jul 14:31:08 14:33:38 15° 296° (WNW) 14:36:07 437.250
Gurwin Techsat 1B 31 Jul 14:36:46 14:42:05 86° 250° (WSW) 14:47:27 435.225
DANDE 31 Jul 14:38:23 14:39:17 11° 75° (ENE) 14:40:15 436.750
SPROUT 31 Jul 14:41:43 14:45:00 21° 293° (WNW) 14:48:16 437.525
Cosmos 2499 31 Jul 14:43:09 14:50:02 26° 82° (E) 14:56:46 435.465 / 435.565
BEESAT 31 Jul 14:44:50 14:48:02 18° 93° (E) 14:51:13 436.000
SO-50 31 Jul 15:02:53 15:05:39 15° 40° (NE) 15:08:21 436.795
CUSAT 1 31 Jul 15:10:18 15:13:34 51° 262° (W) 15:17:45 437.405
ITUPSAT 1 31 Jul 15:10:22 15:14:38 32° 97° (E) 15:18:51 437.325
TISAT 1 31 Jul 15:18:58 15:22:49 33° 290° (WNW) 15:26:38 437.305
GONETS M04 31 Jul 15:22:26 15:30:56 63° 92° (E) 15:39:29
AO-85 31 Jul 15:28:53 15:31:24 13° 322° (NW) 15:33:52 145.980
AO-7 31 Jul 15:38:17 15:46:32 65° 67° (ENE) 15:54:48 29.400- 29.500
PHONESAT 2.4 31 Jul 15:48:21 15:51:13 37° 159° (SSE) 15:54:05 2401.200-2431.200
SWISSCUBE 31 Jul 16:00:31 16:05:15 68° 286° (WNW) 16:09:58 437.505
ITAMSAT 1 31 Jul 16:03:05 16:07:58 40° 261° (W) 16:12:54 435.822/435.867
MOZHAYETS 4 31 Jul 16:19:35 16:23:09 22° 94° (E) 16:26:41
DANDE 31 Jul 16:19:53 16:21:57 18° 264° (W) 16:24:16 436.750
BEESAT 31 Jul 16:21:29 16:26:02 46° 289° (WNW) 16:30:34 436.000
RS-15 31 Jul 16:22:05 16:34:26 77° 243° (WSW) 16:46:33 29.354- 29.394
Cosmos 2499 31 Jul 16:33:39 16:42:28 67° 280° (W) 16:51:02 435.465 / 435.565
SO-50 31 Jul 16:42:07 16:46:44 80° 240° (WSW) 16:51:13 436.795
KKS-1 31 Jul 16:45:58 16:50:09 37° 98° (E) 16:54:18 437.445
ITUPSAT 1 31 Jul 16:48:22 16:52:19 26° 293° (WNW) 16:56:15 437.325
HORYU 2 31 Jul 17:07:01 17:11:22 52° 72° (ENE) 17:15:45 437.375
STARS 31 Jul 17:11:16 17:15:20 34° 98° (E) 17:19:22 437.465
GONETS M04 31 Jul 17:21:08 17:28:19 28° 292° (WNW) 17:35:35
PHONESAT 2.4 31 Jul 17:24:31 17:27:35 88° 345° (NNW) 17:30:41 2401.200-2431.200
AO-7 31 Jul 17:32:59 17:39:47 27° 265° (W) 17:46:39 29.400- 29.500
LilacSat-2 31 Jul 17:48:12 17:50:42 17° 67° (ENE) 17:53:12 437.200
BEESAT 3 31 Jul 17:51:13 17:55:05 66° 118° (ESE) 17:59:00 437.485
CUBESAT XI-V 31 Jul 17:51:59 17:55:51 26° 95° (E) 17:59:43 437.345
NOAA 18 31 Jul 17:55:20 18:00:07 31° 66° (ENE) 18:04:56 137.9125
Cubesat XI-IV 31 Jul 17:55:34 18:00:10 30° 67° (ENE) 18:04:46 437.490
MOZHAYETS 4 31 Jul 17:56:15 18:00:22 34° 290° (WNW) 18:04:28
BRITE-PL 31 Jul 17:58:05 18:01:59 41° 72° (ENE) 18:05:58 437.365/2234.400
DOVE 4 31 Jul 18:06:02 18:07:04 11° 60° (ENE) 18:08:07 437.250
BEESAT 2 31 Jul 18:07:24 18:11:14 50° 118° (ESE) 18:15:05 435.950
CUTE-I 31 Jul 18:16:59 18:22:06 46° 70° (ENE) 18:27:13 437.470
NOAA 15 31 Jul 18:20:42 18:25:53 66° 73° (ENE) 18:31:05 137.62
KKS-1 31 Jul 18:23:07 18:26:28 21° 294° (WNW) 18:29:47 437.445
Cosmos 2499 31 Jul 18:33:24 18:37:14 13° 301° (WNW) 18:41:00 435.465 / 435.565
GOMX 1 31 Jul 18:34:37 18:38:38 45° 73° (ENE) 18:42:53 467.674
RS-15 31 Jul 18:37:36 18:44:46 18° 264° (W) 18:51:55 29.354- 29.394
HORYU 2 31 Jul 18:45:46 18:48:12 14° 268° (W) 18:50:40 437.375
STARS 31 Jul 18:48:04 18:51:28 22° 294° (WNW) 18:54:52 437.465
PCSat 31 Jul 18:50:30 18:55:52 68° 115° (ESE) 19:01:16 145.827
PHONESAT 2.4 31 Jul 19:01:01 19:04:06 75° 190° (S) 19:07:10 2401.200-2431.200
CANX-2 31 Jul 19:10:16 19:12:04 12° 64° (ENE) 19:13:50 2200.000
AIST 2 31 Jul 19:15:09 19:16:31 11° 108° (ESE) 19:17:53 435.215
CINEMA 3 31 Jul 19:16:05 19:19:14 18° 64° (ENE) 19:22:29 145.822/145.860
LilacSat-2 31 Jul 19:21:10 19:24:43 34° 263° (W) 19:28:19 437.200
CUTE 1.7 + AOD 2 31 Jul 19:22:03 19:24:24 15° 65° (ENE) 19:26:45 437.475
YUBILEINY 31 Jul 19:29:07 19:35:22 21° 64° (ENE) 19:41:33 435.215
CUBESAT XI-V 31 Jul 19:29:12 19:33:13 30° 291° (WNW) 19:37:14 437.345
BEESAT 3 31 Jul 19:31:06 19:33:11 14° 317° (NW) 19:35:16 437.485
HO-68 31 Jul 19:34:44 19:41:18 40° 65° (ENE) 19:47:54 435.675
Cubesat XI-IV 31 Jul 19:35:12 19:40:06 35° 263° (W) 19:45:01 437.490
NOAA 18 31 Jul 19:35:36 19:40:38 36° 262° (W) 19:45:44 137.9125
BRITE-PL 31 Jul 19:38:27 19:40:45 14° 269° (W) 19:43:05 437.365/2234.400
DOVE 4 31 Jul 19:39:39 19:43:59 78° 258° (WSW) 19:48:39 437.250
STRAND 1 31 Jul 19:44:20 19:48:21 23° 94° (E) 19:52:20 437.568
BEESAT 2 31 Jul 19:46:45 19:49:21 17° 315° (NW) 19:51:58 435.950
CUBEBUG 2 31 Jul 19:50:38 19:52:40 13° 62° (ENE) 19:54:44 437.445
SEEDS 31 Jul 19:50:57 19:54:07 21° 68° (ENE) 19:57:18 437.485
COMPASS 1 31 Jul 19:53:57 19:56:29 16° 66° (ENE) 19:59:01 437.405
